Weather History for Oskaloosa, IA

Change the Weather History Date:

Friday, February 1, 2013

  Actual Average (KOTM) Record (KOTM)
Temperature  
Mean Temperature 10 °F 23 °F  
Max Temperature 25 °F 33 °F 57 °F (1987)
Min Temperature -5 °F 14 °F -21 °F (1918)
Degree Days  
Heating Degree Days 55 42  
Month to date heating degree days 42  
Since 1 July heating degree days 3864  
Cooling Degree Days 0 0  
Month to date cooling degree days 0  
Year to date cooling degree days 0  
Moisture  
Dew Point -1 °F    
Average Humidity 69    
Maximum Humidity 78    
Minimum Humidity 57    
Precipitation  
Precipitation 0.00 in 0.03 in 0.69 in (1967)
Month to date precipitation 0.03  
Year to date precipitation 0.93  
Sea Level Pressure  
Sea Level Pressure 30.28 in    
Wind  
Wind Speed 11 mph (SW)    
Max Wind Speed 18 mph    
Max Gust Speed 23 mph    
Visibility 10 miles    
Events      
T = Trace of Precipitation, MM = Missing Value Source: NWS Daily Summary

Daily Weather History Graph

Daily Weather History Graph

Search for Another Location

Airport:

Trip Planner

Search our weather history database for the weather conditions in past years. The results will help you decide how hot, cold, wet, or windy it might be!

Date:

Astronomy

Feb. 01, 2013 Rise Set
Actual Time 7:20 AM CST 5:26 PM CST
Civil Twilight 6:51 AM CST 5:56 PM CST
Nautical Twilight 6:18 AM CST 6:29 PM CST
Astronomical Twilight 5:46 AM CST 7:01 PM CST
Moon 11:39 PM CST (2/1) 9:50 AM CST (2/1)
Length of Visible Light 11h 04m
Length of Day
10h 06m
Waning Gibbous, 70% of the Moon is Illuminated
Feb 1
Waning Gibbous
Feb 3
Last Quarter
Feb 10
New
Feb 17
First Quarter
Feb 25
Full

Hourly Weather History & Observations

Time (CST) Temp. Windchill Dew Point Humidity Pressure Visibility Wind Dir Wind Speed Gust Speed Precip Events Conditions
12:15 AM 2.1 °F -17.3 °F -6.0 °F 69% 30.36 in 10.0 mi WNW 16.1 mph - N/A   Clear
12:35 AM 1.4 °F -16.1 °F -5.8 °F 72% 30.37 in 10.0 mi WNW 12.7 mph - N/A   Clear
12:55 AM 1.2 °F -19.6 °F -6.7 °F 69% 30.37 in 10.0 mi WNW 18.4 mph - N/A   Clear
1:15 AM 1.0 °F -18.0 °F -6.7 °F 70% 30.37 in 10.0 mi WNW 15.0 mph 23.0 mph N/A   Clear
1:35 AM 0.9 °F -19.5 °F -7.2 °F 69% 30.37 in 10.0 mi WNW 17.3 mph 23.0 mph N/A   Clear
1:55 AM 0.5 °F -15.6 °F -7.1 °F 70% 30.38 in 10.0 mi WNW 10.4 mph 15.0 mph N/A   Clear
2:15 AM -0.6 °F -18.6 °F -7.6 °F 72% 30.39 in 10.0 mi West 12.7 mph - N/A   Clear
2:35 AM -0.6 °F -16.0 °F -8.1 °F 70% 30.39 in 10.0 mi West 9.2 mph - N/A   Clear
2:55 AM -2.0 °F -17.7 °F -8.7 °F 73% 30.39 in 10.0 mi West 9.2 mph - N/A   Clear
3:15 AM -2.2 °F -18.0 °F -8.7 °F 74% 30.39 in 10.0 mi West 9.2 mph - N/A   Clear
3:35 AM -2.4 °F -18.2 °F -8.7 °F 75% 30.38 in 10.0 mi WNW 9.2 mph - N/A   Clear
4:15 AM -2.7 °F -17.5 °F -9.0 °F 74% 30.39 in 10.0 mi WNW 8.1 mph - N/A   Clear
4:35 AM -3.3 °F -18.2 °F -9.4 °F 75% 30.39 in 10.0 mi WNW 8.1 mph - N/A   Clear
5:15 AM -3.5 °F -19.5 °F -9.4 °F 76% 30.39 in 10.0 mi WNW 9.2 mph - N/A   Clear
5:35 AM -3.6 °F -18.6 °F -9.6 °F 76% 30.38 in 10.0 mi NW 8.1 mph - N/A   Clear
5:55 AM -4.2 °F -18.0 °F -10.1 °F 76% 30.38 in 10.0 mi WNW 6.9 mph - N/A   Clear
6:15 AM -4.7 °F -17.2 °F -10.5 °F 76% 30.38 in 10.0 mi West 5.8 mph - N/A   Clear
6:35 AM -4.9 °F -15.6 °F -10.3 °F 78% 30.38 in 10.0 mi NW 4.6 mph - N/A   Clear
6:55 AM -4.9 °F - -10.3 °F 78% 30.39 in 10.0 mi Calm Calm - N/A   Clear
7:15 AM -4.9 °F - -10.1 °F 78% 30.39 in 10.0 mi Calm Calm - N/A   Clear
7:35 AM -5.1 °F -17.6 °F -10.5 °F 78% 30.40 in 10.0 mi WSW 5.8 mph - N/A   Clear
8:15 AM -4.0 °F - -10.3 °F 74% 30.40 in 10.0 mi Calm Calm - N/A   Clear
8:35 AM -3.1 °F -15.2 °F -9.4 °F 74% 30.41 in 10.0 mi West 5.8 mph - N/A   Clear
9:15 AM -1.5 °F -14.7 °F -8.5 °F 72% 30.41 in 10.0 mi WSW 6.9 mph - N/A   Clear
9:35 AM -0.8 °F -12.5 °F -8.5 °F 70% 30.40 in 10.0 mi West 5.8 mph - N/A   Clear
9:55 AM -0.0 °F -11.6 °F -8.5 °F 68% 30.40 in 10.0 mi West 5.8 mph - N/A   Clear
10:15 AM 0.7 °F -10.7 °F -8.0 °F 67% 30.41 in 10.0 mi West 5.8 mph - N/A   Clear
10:35 AM 1.2 °F -11.5 °F -7.8 °F 66% 30.41 in 10.0 mi West 6.9 mph - N/A   Clear
10:55 AM 1.9 °F -7.6 °F -8.0 °F 63% 30.40 in 10.0 mi SW 4.6 mph - N/A   Clear
11:15 AM 2.3 °F -7.2 °F -7.2 °F 64% 30.39 in 10.0 mi SW 4.6 mph - N/A   Scattered Clouds
11:35 AM 3.4 °F -7.5 °F -5.6 °F 66% 30.38 in 10.0 mi SW 5.8 mph - N/A   Overcast
11:55 AM 4.5 °F -4.7 °F -4.4 °F 67% 30.37 in 10.0 mi SSW 4.6 mph - N/A   Overcast
12:15 PM 5.5 °F -6.3 °F -4.5 °F 63% 30.36 in 10.0 mi SW 6.9 mph - N/A   Overcast
12:35 PM 7.0 °F -7.5 °F -3.6 °F 62% 30.35 in 10.0 mi SW 10.4 mph - N/A   Overcast
12:55 PM 7.9 °F -6.4 °F -2.9 °F 61% 30.34 in 10.0 mi SW 10.4 mph - N/A   Overcast
1:15 PM 9.1 °F -5.6 °F -1.8 °F 61% 30.32 in 10.0 mi SSW 11.5 mph - N/A   Overcast
1:35 PM 9.5 °F -3.5 °F -2.9 °F 57% 30.30 in 10.0 mi SSW 9.2 mph - N/A   Overcast
2:15 PM 10.9 °F -2.6 °F -0.9 °F 59% 30.28 in 10.0 mi SSW 10.4 mph - N/A   Overcast
2:35 PM 10.8 °F -2.8 °F -0.2 °F 61% 30.28 in 10.0 mi SSW 10.4 mph - N/A   Overcast
2:55 PM 11.3 °F -2.9 °F 0.1 °F 61% 30.27 in 10.0 mi South 11.5 mph - N/A   Overcast
3:15 PM 11.7 °F -2.5 °F 0.1 °F 60% 30.26 in 10.0 mi South 11.5 mph - N/A   Overcast
3:35 PM 12.0 °F -1.3 °F 0.7 °F 60% 30.25 in 10.0 mi South 10.4 mph - N/A   Overcast
3:55 PM 12.6 °F -1.4 °F 1.8 °F 62% 30.24 in 10.0 mi SSE 11.5 mph - N/A   Overcast
4:15 PM 13.1 °F -0.7 °F 2.7 °F 63% 30.23 in 10.0 mi South 11.5 mph - N/A   Overcast
4:35 PM 13.8 °F 1.0 °F 3.9 °F 65% 30.23 in 10.0 mi South 10.4 mph - N/A   Overcast
4:55 PM 14.0 °F 1.2 °F 4.1 °F 65% 30.21 in 10.0 mi South 10.4 mph - N/A   Overcast
5:15 PM 14.9 °F 1.6 °F 4.8 °F 64% 30.20 in 10.0 mi South 11.5 mph - N/A   Overcast
5:35 PM 14.9 °F 1.6 °F 5.2 °F 65% 30.19 in 10.0 mi South 11.5 mph - N/A   Overcast
5:55 PM 15.4 °F 3.0 °F 6.1 °F 67% 30.19 in 10.0 mi South 10.4 mph - N/A   Overcast
6:15 PM 15.8 °F 2.7 °F 6.6 °F 67% 30.17 in 10.0 mi South 11.5 mph - N/A   Overcast
6:35 PM 15.8 °F 3.4 °F 7.0 °F 68% 30.17 in 10.0 mi South 10.4 mph - N/A   Mostly Cloudy
6:55 PM 16.2 °F 4.7 °F 7.7 °F 69% 30.15 in 10.0 mi South 9.2 mph - N/A   Scattered Clouds
7:15 PM 16.3 °F 4.1 °F 8.1 °F 70% 30.15 in 10.0 mi South 10.4 mph - N/A   Clear
7:35 PM 16.7 °F 6.2 °F 8.6 °F 70% 30.14 in 10.0 mi South 8.1 mph - N/A   Clear
7:55 PM 16.9 °F 5.5 °F 9.5 °F 73% 30.13 in 10.0 mi South 9.2 mph - N/A   Clear
8:15 PM 17.4 °F 6.2 °F 10.0 °F 73% 30.13 in 10.0 mi South 9.2 mph - N/A   Clear
8:35 PM 17.6 °F 7.3 °F 10.4 °F 73% 30.12 in 10.0 mi South 8.1 mph - N/A   Clear
8:55 PM 17.6 °F 8.2 °F 11.3 °F 76% 30.12 in 10.0 mi South 6.9 mph - N/A   Scattered Clouds
9:15 PM 18.3 °F 6.6 °F 12.0 °F 76% 30.11 in 10.0 mi South 10.4 mph - N/A   Overcast
9:35 PM 18.3 °F 5.9 °F 12.2 °F 77% 30.10 in 10.0 mi South 11.5 mph - N/A   Mostly Cloudy
9:55 PM 19.6 °F 8.1 °F 13.6 °F 78% 30.10 in 10.0 mi South 10.4 mph - N/A   Overcast
10:15 PM 22.3 °F 9.7 °F 15.1 °F 74% 30.10 in 10.0 mi SSW 13.8 mph - N/A   Overcast
10:35 PM 23.9 °F 10.8 °F 15.6 °F 71% 30.09 in 10.0 mi SW 16.1 mph - N/A   Overcast
10:55 PM 24.8 °F 12.4 °F 16.2 °F 70% 30.09 in 10.0 mi SW 15.0 mph 20.7 mph N/A   Overcast
11:15 PM 25.3 °F 12.2 °F 16.2 °F 68% 30.08 in 10.0 mi SW 17.3 mph - N/A   Overcast
11:35 PM 25.3 °F 13.1 °F 16.2 °F 68% 30.07 in 10.0 mi SW 15.0 mph - N/A   Overcast
11:55 PM 25.5 °F 12.9 °F 16.3 °F 68% 30.06 in 10.0 mi SW 16.1 mph - N/A   Overcast